Location: Doln� Plezom
(49.7667°N, 12.8333°E)
Time: 01:16:37
(UTC+00:00)

Daily predictions for brighter satellites

Satellite Brightness Start Highest point End
(mag) Time Altitude Azimuth Time Altitude Azimuth Time Altitude Azimuth
STARLINK-1105 3.0 00:00:16 10° WNW 00:03:22 73° NNE 00:06:28 10° ESE
STARLINK-1209 2.8 00:00:30 10° WNW 00:03:40 90° SSW 00:06:50 10° ESE
STARLINK-1247 3.0 00:01:10 10° WNW 00:04:17 74° NNE 00:07:24 10° ESE
STARLINK-1208 4.2 00:00:35 10° WNW 00:04:42 60° N 00:08:48 10° E
STARLINK-1227 3.0 00:01:38 10° WNW 00:04:45 74° NNE 00:07:50 10° ESE
ATLAS CENTAUR R/B 2.3 00:02:48 10° NW 00:04:58 43° NNE 00:09:00 10° ESE
STARLINK-1226 3.0 00:02:29 10° WNW 00:05:36 75° NNE 00:08:44 10° ESE
STARLINK-1215 2.9 00:03:25 10° WNW 00:06:33 76° NNE 00:09:41 10° ESE
STARLINK-1225 4.3 00:02:38 10° W 00:06:43 55° N 00:10:49 10° ENE
Nadezhda 2 Rocket 4.4 00:04:33 29° S 00:07:53 88° WNW 00:14:03 10° N
STARLINK-1217 2.9 00:05:11 10° WNW 00:08:19 77° NNE 00:11:26 10° ESE
STARLINK-1229 2.9 00:06:06 10° WNW 00:09:14 78° NNE 00:12:22 10° ESE
STARLINK-1271 4.1 00:05:35 10° WNW 00:09:43 61° NNE 00:13:49 10° E
STARLINK-1270 2.9 00:06:58 10° WNW 00:10:07 79° NNE 00:13:14 10° ESE
GEOS 3 Rocket 3.7 00:07:39 27° SSE 00:10:22 55° SW 00:15:34 10° NW
Cosmos 1726 3.9 00:07:46 10° NW 00:10:23 18° W 00:10:54 18° W
STARLINK-1230 4.3 00:07:37 10° W 00:11:42 54° N 00:15:47 10° ENE
Cosmos 2058 Rocket 3.0 00:07:24 10° NNW 00:11:51 83° W 00:13:46 34° S
STARLINK-1189 2.9 00:08:49 10° WNW 00:11:57 81° NNE 00:15:04 10° ESE
Meteor 1-29 2.9 00:09:21 10° N 00:12:44 69° WNW 00:13:32 48° SW
STARLINK-1188 2.9 00:09:41 10° WNW 00:12:49 81° NNE 00:15:57 10° ESE
STARLINK-1235 2.7 00:10:24 10° WNW 00:13:30 86° SSW 00:16:36 10° ESE
STARLINK-1187 2.7 00:10:49 10° WNW 00:13:55 88° NNE 00:17:01 10° ESE
Cosmos 2228 3.6 00:10:15 10° NNW 00:14:17 41° W 00:15:32 33° SW
STARLINK-1154 4.1 00:10:35 10° WNW 00:14:42 63° NNE 00:18:50 10° E
COSMOS 2455 2.8 00:11:40 29° SSW 00:14:56 78° ESE 00:20:59 10° NE
STARLINK-1191 2.8 00:12:10 10° WNW 00:15:18 84° NNE 00:18:24 10° ESE
SJ 16-02 3.3 00:11:52 10° N 00:15:41 27° NE 00:19:29 10° ESE
STARLINK-1221 2.8 00:13:03 10° WNW 00:16:10 85° NNE 00:19:16 10° ESE
STARLINK-1243 4.4 00:12:37 10° W 00:16:42 54° N 00:20:47 10° ENE
STARLINK-1222 2.8 00:13:56 10° WNW 00:17:03 86° NNE 00:20:09 10° ESE
STARLINK-1214 2.8 00:14:51 10° WNW 00:17:58 86° NNE 00:21:04 10° ESE
Cosmos 1953 4.3 00:16:12 10° NW 00:18:34 15° W 00:19:26 14° W
STARLINK-1197 4.0 00:15:34 10° WNW 00:19:41 65° NNE 00:23:49 10° E
SL-14 R/B 3.2 00:18:39 38° S 00:20:02 80° E 00:23:55 10° NNE
IRAS Rocket 4.3 00:17:53 27° S 00:20:59 66° WSW 00:26:33 10° NNW
STARLINK-1236 4.4 00:17:37 10° W 00:21:42 53° N 00:25:47 10° ENE
Cosmos 1300 2.6 00:19:47 10° NNW 00:23:37 83° W 00:25:04 37° S
Okean 1-7 Rocket 3.6 00:22:03 34° SSW 00:24:00 81° W 00:28:32 10° N
Cosmos 1174 3.2 00:23:33 48° SSW 00:24:22 86° SE 00:28:06 10° NE
STARLINK-1198 4.0 00:20:31 10° WNW 00:24:39 67° NNE 00:28:47 10° E
Cosmos 921 Rocket 3.4 00:23:34 29° SSE 00:25:24 52° ESE 00:29:36 10° NNE
BREEZE M DEB (TANK) 1.8 00:26:50 60° SSE 00:26:50 60° SSE 00:29:47 10° ESE
COSMOS 2487 3.8 00:24:26 10° NW 00:27:18 24° WSW 00:27:18 24° WSW
STARLINK-1199 3.9 00:25:32 10° WNW 00:29:40 69° NNE 00:33:49 10° E
Meteor 2-16 Rocket 4.5 00:27:43 24° S 00:31:34 83° E 00:37:44 10° NNE
STARLINK-1269 4.4 00:27:36 10° WNW 00:31:41 53° N 00:35:46 10° ENE
Cosmos 1626 Rocket 4.0 00:29:36 25° SSE 00:31:53 54° E 00:36:08 10° NNE
Cosmos 2219 3.6 00:26:56 10° NNW 00:32:37 65° ENE 00:38:12 10° SE
STARLINK-1210 3.9 00:30:30 10° WNW 00:34:39 71° NNE 00:38:48 10° ESE
Cosmos 1626 2.2 00:34:31 36° SSW 00:35:50 65° WNW 00:39:32 10° N
STARLINK-1200 4.4 00:32:37 10° WNW 00:36:42 53° N 00:40:47 10° E
STARLINK-60 3.0 00:36:27 47° SSW 00:37:02 59° SSE 00:40:12 10° ENE
STARLINK-1219 3.8 00:35:29 10° WNW 00:39:39 74° NNE 00:43:47 10° ESE
Nadezhda 1 Rocket 3.9 00:34:56 10° N 00:41:07 87° W 00:45:52 18° S
STARLINK-1192 4.4 00:37:37 10° WNW 00:41:42 53° N 00:45:47 10° E
FALCON 9 R/B 3.9 00:38:25 22° SSW 00:42:29 34° SSE 01:00:36 10° ESE
STARLINK-1211 3.7 00:40:27 10° WNW 00:44:36 77° NNE 00:48:46 10° ESE
STARLINK-1244 4.4 00:42:36 10° WNW 00:46:41 53° N 00:50:46 10° E
MOZ.5/SAFIR/RUBIN 5/SL-8 3.7 00:44:16 24° S 00:47:01 69° WSW 00:51:39 10° NNW
UNK 3.7 00:44:01 19° SSE 00:47:16 89° WSW 00:51:55 10° NNW
Cosmos 2297 Rocket 2.5 00:42:37 10° NNW 00:48:17 69° ENE 00:53:54 10° SE
Cosmos 220 Rocket 4.2 00:46:16 27° S 00:48:35 66° ESE 00:53:00 10° NNE
STARLINK-1245 3.7 00:45:27 10° WNW 00:49:36 80° NNE 00:53:46 10° ESE
Cosmos 1812 Rocket 3.7 00:46:34 10° N 00:51:04 76° E 00:54:30 17° SSE
CZ-4B R/B 4.1 00:46:23 10° NNE 00:51:25 52° E 00:55:16 17° S
STARLINK-1138 4.4 00:47:36 10° WNW 00:51:41 54° N 00:55:46 10° E
SL-4 R/B 2.4 00:49:13 23° SW 00:52:09 67° SSE 00:56:50 10° ENE
Cosmos 1437 2.6 00:52:48 39° SW 00:53:40 63° WNW 00:56:41 10° N
STARLINK-1203 4.4 00:50:12 10° WNW 00:54:21 55° N 00:58:29 10° E
STARLINK-1233 3.6 00:50:25 10° WNW 00:54:35 83° NNE 00:58:45 10° ESE
STARLINK-1143 4.4 00:52:36 10° WNW 00:56:41 54° N 01:00:46 10° E
STARLINK-1204 3.6 00:55:25 10° WNW 00:59:35 87° NNE 01:03:44 10° ESE
ATLAS CENTAUR R/B 1.7 00:56:56 21° WSW 00:59:40 60° NW 01:03:44 10° NE
Timation 2 Rocket 4.3 00:53:58 10° NW 01:00:01 47° WSW 01:04:30 17° S
SL-16 R/B 2.5 00:56:01 16° S 01:01:06 69° WSW 01:07:16 10° NNW
STARLINK-1241 4.4 00:57:35 10° WNW 01:01:41 55° N 01:05:46 10° E
NOSS 3-4 (A) 4.0 00:57:30 13° WSW 01:02:51 54° NW 01:09:15 10° NE
NOSS 3-4 (C) 4.0 00:57:37 13° WSW 01:02:56 55° NW 01:09:22 10° NE
BREEZE-M R/B 3.3 01:01:07 25° SSW 01:02:59 37° SSE 01:05:47 10° E
FALCON 9 DEB 4.0 01:02:08 28° S 01:03:11 35° SE 01:06:23 10° ENE
STARLINK-1238 3.6 01:00:22 10° WNW 01:04:32 89° SSW 01:08:41 10° ESE
Cosmos 1602 Rocket 3.5 01:01:58 23° S 01:04:38 90° SSW 01:08:59 10° N
STARLINK-29 3.1 01:04:34 32° SSW 01:05:42 53° SSE 01:08:50 10° ENE
Cosmos 1455 2.5 01:02:20 10° N 01:06:03 62° ENE 01:09:23 12° SSE
STARLINK-1239 4.3 01:02:34 10° WNW 01:06:40 56° N 01:10:46 10° E
ATLAS 3B R/B 3.3 01:01:16 10° NW 01:07:23 37° WSW 01:12:43 14° S
BREEZE-M DEB (TANK) 3.6 01:09:30 16° SE 01:09:30 16° SE 01:10:56 10° E
STARLINK-1201 3.5 01:05:22 10° WNW 01:09:32 85° SSW 01:13:41 10° ESE
IRS-1D 4.2 01:05:23 10° NNE 01:10:37 53° E 01:15:16 13° S
CENTAUR R/B 4.3 01:04:44 10° WNW 01:10:50 23° WSW 01:14:47 17° SW
STARLINK-1240 4.3 01:07:34 10° WNW 01:11:41 57° N 01:15:46 10° E
GP-B 3.5 01:07:46 10° N 01:12:12 63° E 01:16:11 13° S
Meteor 2-1 Rocket 4.2 01:07:52 10° NNW 01:13:21 68° W 01:18:03 14° S
BREEZE-M DEB (TANK) 0.9 01:12:38 24° WSW 01:13:56 72° S 01:16:17 10° E
STARLINK-1206 3.5 01:10:21 10° WNW 01:14:30 81° SSW 01:18:39 10° ESE
Cosmos-2242 3.5 01:11:25 10° N 01:15:40 60° ENE 01:19:51 10° SSE
STARLINK-1216 4.3 01:12:34 10° WNW 01:16:40 58° N 01:20:46 10° E
Cosmos 1745 Rocket 4.2 01:12:45 19° SSW 01:17:12 60° WNW 01:23:17 10° N
STARLINK-1205 3.5 01:15:20 10° WNW 01:19:29 77° SSW 01:23:37 10° ESE
STARLINK-1237 4.2 01:17:33 10° WNW 01:21:41 59° N 01:25:47 10° E
RESURS DK-1 2.9 01:19:17 19° SW 01:22:02 51° NW 01:26:06 10° NNE
Cosmos 2181 Rocket 4.2 01:15:48 10° N 01:22:15 79° E 01:28:42 10° SSE
SL-08 R/B 4.0 01:17:58 10° SSE 01:22:32 55° ENE 01:27:05 10° N
Cosmos 1356 Rocket 4.3 01:19:52 10° NNW 01:23:35 33° W 01:25:49 20° SW
Cosmos 2227 Rocket 2.2 01:18:11 10° NNW 01:23:53 79° WSW 01:29:33 10° SSE
STARLINK-1218 3.5 01:20:18 10° WNW 01:24:27 73° SSW 01:28:34 10° ESE
CZ-2D R/B 2.2 01:20:58 10° N 01:26:13 66° WNW 01:30:15 17° SSW
STARLINK-1202 4.2 01:22:33 10° WNW 01:26:41 61° NNE 01:30:47 10° E
Cosmos 1763 Rocket 4.0 01:23:45 13° S 01:28:09 52° ESE 01:33:06 10° NNE
Cosmos 1697 Rocket 3.8 01:23:15 10° S 01:28:26 38° ESE 01:33:39 10° NE
ADEOS II 2.6 01:23:44 10° NNE 01:28:56 58° E 01:34:06 10° S
STARLINK-1254 3.5 01:25:17 10° WNW 01:29:25 69° SSW 01:33:32 10° SE
Cosmos 1703 3.7 01:26:47 13° S 01:30:13 61° E 01:34:09 10° NNE
ATLAS 2AS CENTAUR R/B 3.8 01:24:24 10° WSW 01:32:07 47° NNW 01:39:38 10° NE
STARLINK-1231 3.5 01:30:18 10° WNW 01:34:25 65° SSW 01:38:31 10° SE
STARLINK-1228 4.3 01:33:13 10° W 01:35:51 22° SW 01:38:29 10° SSE
Resurs 1-4 Rocket 2.4 01:30:47 10° N 01:35:55 54° WNW 01:40:11 15° SW
STARLINK-1246 4.1 01:32:31 10° WNW 01:36:39 64° NNE 01:40:46 10° E
STARLINK-1234 4.2 01:34:40 10° W 01:41:18 - SSE 01:37:02 20° SW
STARLINK-1212 3.9 01:35:52 10° W 01:38:30 25° SW 01:41:07 10° SSE
STARLINK-1105 3.9 01:36:21 10° W 01:38:58 25° SW 01:41:34 10° SSE
STARLINK-1209 4.5 01:37:00 10° W 01:38:42 18° WSW 01:38:42 18° WSW
STARLINK-1232 3.6 01:35:17 10° WNW 01:39:23 61° SSW 01:43:28 10° SE
STARLINK-1247 3.9 01:37:16 10° W 01:39:53 25° SW 01:42:30 10° SSE
STARLINK-1227 3.9 01:37:44 10° W 01:40:19 24° SW 01:42:54 10° SSE
USA 81 4.3 01:36:19 15° SSW 01:40:35 57° W 01:45:49 10° N
ARIANE 5 R/B 3.4 01:36:08 10° NNE 01:41:02 46° E 01:45:51 10° S
STARLINK-1226 3.9 01:38:35 10° W 01:41:11 24° SW 01:43:47 10° SSE
STARLINK-1224 4.0 01:37:30 10° WNW 01:41:39 66° NNE 01:45:46 10° E
STARLINK-52 2.9 01:39:41 16° WSW 01:42:06 83° SSE 01:45:20 10° ENE
STARLINK-1215 4.0 01:39:32 10° W 01:42:07 24° SW 01:44:43 10° SSE
Cosmos 1758 Rocket 3.5 01:39:23 14° SSW 01:43:02 76° WNW 01:47:26 10° N
NPP 4.0 01:38:05 10° N 01:43:21 56° WNW 01:47:57 14° SW
STARLINK-1217 4.0 01:41:19 10° W 01:43:53 23° SW 01:46:26 10° SSE
STARLINK-1208 3.6 01:40:15 10° WNW 01:44:20 57° SSW 01:48:23 10° SE
STARLINK-1229 4.0 01:42:15 10° W 01:44:48 23° SW 01:47:20 10° SSE
H-2A R/B 3.1 01:41:06 10° SE 01:45:15 48° ENE 01:49:32 10° N
STARLINK-1270 4.0 01:43:08 10° W 01:45:39 23° SW 01:48:11 10° SSE
STARLINK-1225 4.0 01:42:30 10° WNW 01:46:39 68° NNE 01:50:47 10° E
STARLINK-1189 4.1 01:45:00 10° W 01:47:29 22° SW 01:49:58 10° SSE
STARLINK-1188 4.1 01:45:54 10° W 01:48:22 22° SW 01:50:50 10° SSE
STARLINK-1235 4.4 01:46:48 10° W 01:48:57 17° SW 01:51:05 10° S
Cosmos 1898 Rocket 3.6 01:43:42 10° NNW 01:48:57 59° WSW 01:54:10 10° S
STARLINK-1271 3.7 01:45:16 10° WNW 01:49:19 54° SSW 01:53:21 10° SE
STARLINK-1187 4.2 01:47:07 10° W 01:49:24 19° SW 01:51:42 10° S
STARLINK-1191 4.1 01:48:24 10° W 01:50:48 20° SW 01:53:11 10° S
Lacrosse 4 Rocket 1.9 01:46:39 10° NNW 01:51:01 66° NE 01:55:14 10° SE
STARLINK-1230 3.9 01:47:28 10° WNW 01:51:37 70° NNE 01:55:46 10° E
Starlink 7 placeholder 3.3 01:49:48 10° W 01:51:39 34° N 01:53:32 10° ENE
STARLINK-1221 4.2 01:49:17 10° W 01:51:40 20° SW 01:54:03 10° S
Meteor 1-21 Rocket 4.4 01:46:49 13° SSW 01:51:41 59° WNW 01:57:19 10° N
STARLINK-1222 4.2 01:50:12 10° W 01:52:34 20° SW 01:54:55 10° S
Cosmos 1656 3.7 01:48:20 13° SSW 01:53:26 85° WNW 01:59:07 10° NNE
STARLINK-1214 4.2 01:51:07 10° W 01:53:28 20° SW 01:55:47 10° S
STARLINK-1154 3.8 01:50:15 10° WNW 01:54:17 50° SSW 01:58:17 10° SE
IDEFIX/ARIANE 42P 4.1 01:49:32 10° NNE 01:54:20 34° E 01:59:06 10° SSE
SJ 16-02 1.9 01:50:15 10° NW 01:54:24 40° WSW 01:58:32 10° S
Cosmos 2285 Rocket 4.0 01:48:04 10° NNW 01:54:29 80° WSW 02:00:48 10° SSE
CZ-4C R/B 2.8 01:50:43 11° SSW 01:55:24 47° ESE 02:01:06 10° NE
Cosmos 2084 3.8 01:52:18 12° WSW 01:56:19 62° NW 02:00:47 10° NE
STARLINK-1243 3.9 01:52:27 10° WNW 01:56:37 73° NNE 02:00:45 10° ESE
Cosmos 468 Rocket 4.0 01:52:22 12° SSW 01:57:04 81° WNW 02:02:14 10° NNE
Cosmos 1570 Rocket 4.5 01:53:26 10° S 01:58:40 60° ESE 02:03:54 10° NNE
STARLINK-1197 3.8 01:55:15 10° WNW 01:59:14 47° SSW 02:03:13 10° SE
Cosmos 1937 Rocket 3.5 01:54:03 10° NNW 01:59:14 66° WSW 02:04:27 10° S
Cosmos 1953 Rocket 3.6 01:54:51 10° S 01:59:20 90° ESE 02:03:49 10° N
Meteor 2-10 Rocket 4.2 01:56:07 10° NNW 02:01:02 38° W 02:05:45 10° SSW
Uosat 12 SS-18 rocket 4.4 01:57:02 10° NW 02:01:21 71° NE 02:05:47 10° SE
COSMOS 2455 4.3 01:56:15 10° W 02:01:30 30° NW 02:06:47 10° NNE
STARLINK-1236 3.8 01:57:26 10° WNW 02:01:36 76° NNE 02:05:45 10° ESE
Cosmos 2369 4.1 01:56:10 10° SSW 02:01:44 63° ESE 02:07:19 10° NE
STARLINK-1198 3.9 02:00:13 10° WNW 02:04:10 44° SW 02:08:06 10° SE
Cosmos 1842 Rocket 4.4 02:00:49 10° N 02:05:16 56° ENE 02:09:40 10° SSE
Cosmos 1709 Rocket 4.4 02:01:48 11° SW 02:07:26 46° WNW 02:13:21 10° N
STARLINK-1199 4.0 02:05:15 10° WNW 02:09:09 41° SW 02:13:03 10° SE
Iridium 2 4.0 02:06:44 10° N 02:10:29 70° E 02:14:14 10° SSE
STARLINK-1269 3.7 02:07:23 10° WNW 02:11:33 82° NNE 02:15:42 10° ESE
USA 129 4.2 02:11:19 10° NE 02:12:39 15° E 02:13:46 10° SE
STARLINK-60 3.8 02:10:07 10° W 02:13:15 49° N 02:16:24 10° ENE
STARLINK-1210 4.1 02:10:14 10° WNW 02:14:06 38° SW 02:17:56 10° SSE
Cosmos 2219 4.3 02:11:51 10° NW 02:16:17 24° WSW 02:20:42 10° SSW
STARLINK-1200 3.7 02:12:23 10° WNW 02:16:33 86° NNE 02:20:43 10° ESE
Cosmos 1814 Rocket 4.4 02:12:14 10° S 02:17:31 65° ESE 02:22:49 10° NNE
STARLINK-1320 3.0 02:14:52 10° SW 02:17:55 64° SSE 02:21:00 10° ENE
STARLINK-1322 3.0 02:15:11 10° SW 02:18:15 64° SSE 02:21:21 10° ENE
STARLINK-1324 3.0 02:15:32 10° SW 02:18:36 65° SSE 02:21:43 10° ENE
STARLINK-1294 3.0 02:15:47 10° SW 02:18:53 65° SSE 02:22:01 10° ENE
STARLINK-1219 4.2 02:15:14 10° WNW 02:19:03 36° SW 02:22:50 10° SSE
STARLINK-1261 3.0 02:16:10 10° SW 02:19:15 65° SSE 02:22:22 10° ENE
STARLINK-1325 3.0 02:16:32 10° SW 02:19:37 66° SSE 02:22:43 10° ENE
Nadezhda 3 Rocket 4.3 02:13:25 10° N 02:19:42 75° ENE 02:26:01 10° SSE
STARLINK-1333 3.0 02:16:50 10° SW 02:19:56 66° SSE 02:23:02 10° ENE
STARLINK-1334 2.9 02:17:10 10° SW 02:20:15 66° SSE 02:23:23 10° ENE
STARLINK-1326 2.9 02:17:31 10° SW 02:20:37 67° SSE 02:23:44 10° ENE
Cosmos 1980 Rocket 2.9 02:15:13 10° S 02:20:39 52° ESE 02:26:07 10° NE
STARLINK-1323 2.9 02:17:51 10° SW 02:20:57 67° SSE 02:24:03 10° ENE
STARLINK-1338 3.3 02:17:45 10° SW 02:21:11 64° SSE 02:24:39 10° ENE
STARLINK-1349 2.9 02:18:11 10° SW 02:21:17 67° SSE 02:24:23 10° ENE
STARLINK-1192 3.6 02:17:22 10° WNW 02:21:32 89° NNE 02:25:42 10° ESE
STARLINK-1336 2.9 02:18:33 10° WSW 02:21:39 68° SSE 02:24:46 10° ENE
STARLINK-1331 2.9 02:18:51 10° WSW 02:21:57 68° SSE 02:25:04 10° ENE
STARLINK-1344 2.9 02:19:12 10° WSW 02:22:18 69° SSE 02:25:24 10° ENE
CZ-4B R/B 3.9 02:20:06 10° ESE 02:22:36 24° ENE 02:25:09 10° NNE
STARLINK-1343 2.9 02:19:32 10° WSW 02:22:38 69° SSE 02:25:45 10° ENE
STARLINK-1346 2.9 02:19:52 10° WSW 02:23:00 70° SSE 02:26:08 10° ENE
STARLINK-1328 2.9 02:20:14 10° WSW 02:23:19 70° SSE 02:26:27 10° ENE
STARLINK-1354 2.9 02:20:32 10° WSW 02:23:38 70° SSE 02:26:45 10° ENE
STARLINK-1211 4.3 02:20:14 10° WNW 02:23:59 33° SW 02:27:43 10° SSE
STARLINK-1347 2.9 02:20:54 10° WSW 02:24:00 70° SSE 02:27:07 10° ENE
STARLINK-1357 2.9 02:21:12 10° WSW 02:24:18 71° SSE 02:27:25 10° ENE
STARLINK-1335 2.9 02:21:34 10° WSW 02:24:40 71° SSE 02:27:47 10° ENE
ERS-2 2.4 02:21:24 10° S 02:24:58 48° W 02:28:33 10° NNW
STARLINK-1327 2.9 02:21:53 10° WSW 02:25:00 71° SSE 02:28:06 10° ENE
STARLINK-1371 3.3 02:21:45 10° SW 02:25:13 68° SSE 02:28:43 10° ENE
STARLINK-1340 2.9 02:22:14 10° WSW 02:25:21 72° SSE 02:28:28 10° ENE
STARLINK-1356 2.9 02:22:35 10° WSW 02:25:41 72° SSE 02:28:48 10° ENE
STARLINK-1345 2.9 02:22:55 10° WSW 02:26:02 73° SSE 02:29:08 10° ENE
ERBS 3.4 02:23:05 10° NW 02:26:21 49° NNE 02:29:37 10° ESE
STARLINK-1355 2.9 02:23:15 10° WSW 02:26:21 73° SSE 02:29:28 10° ENE
STARLINK-1244 3.6 02:22:20 10° WNW 02:26:30 87° SSW 02:30:39 10° ESE
STARLINK-1321 2.9 02:23:34 10° WSW 02:26:41 73° SSE 02:29:47 10° ENE
STARLINK-1358 2.9 02:23:56 10° WSW 02:27:02 74° SSE 02:30:10 10° ENE
IRS-1C 4.4 02:21:52 10° N 02:27:08 60° WNW 02:32:21 10° SSW
STARLINK-1341 3.2 02:23:47 10° WSW 02:27:15 70° SSE 02:30:45 10° ENE
STARLINK-1332 2.9 02:24:15 10° WSW 02:27:21 74° SSE 02:30:28 10° ENE
STARLINK-1348 2.9 02:24:37 10° WSW 02:27:43 74° SSE 02:30:50 10° ENE
STARLINK-1330 2.9 02:24:55 10° WSW 02:28:02 75° SSE 02:31:09 10° ENE
STARLINK-1363 2.9 02:25:15 10° WSW 02:28:22 75° SSE 02:31:30 10° ENE
STARLINK-1337 2.9 02:25:35 10° WSW 02:28:42 75° SSE 02:31:50 10° ENE
STARLINK-1245 4.4 02:25:16 10° WNW 02:28:57 31° SW 02:32:37 10° SSE
STARLINK-1342 2.9 02:25:56 10° WSW 02:29:03 76° SSE 02:32:11 10° ENE
STARLINK-1374 3.2 02:25:49 10° WSW 02:29:18 72° SSE 02:32:49 10° ENE
STARLINK-1364 2.9 02:26:17 10° WSW 02:29:24 76° SSE 02:32:31 10° ENE
STARLINK-1376 2.9 02:26:38 10° WSW 02:29:45 77° SSE 02:32:52 10° ENE
STARLINK-1360 2.9 02:26:53 10° WSW 02:30:00 77° SSE 02:33:09 10° ENE
Cosmos 2297 Rocket 3.4 02:27:30 10° NW 02:31:49 23° WSW 02:36:05 10° SSW
SL-4 R/B 2.6 02:27:11 10° W 02:31:59 71° N 02:36:34 10° E
